Time,TemperatureF,DewpointF,PressureIn,WindDirection,WindDirectionDegrees,WindSpeedMPH,WindSpeedGustMPH,Humidity,HourlyPrecipIn,Conditions,Clouds,dailyrainin,SoftwareType,DateUTC
2013-04-05 00:02:00,35.0,31.0,29.98,NW,317,0.0,0.0,85,0.00,,,0.08,,2013-04-05 04:02:00,
2013-04-05 00:12:00,35.0,31.0,29.98,NW,317,0.0,0.0,85,0.00,,,0.08,,2013-04-05 04:12:00,
2013-04-05 00:23:00,35.0,30.0,29.98,NW,307,4.0,9.0,81,0.00,,,0.08,,2013-04-05 04:23:00,
2013-04-05 00:33:00,35.0,29.0,29.98,NW,317,4.0,8.0,79,0.00,,,0.08,,2013-04-05 04:33:00,
2013-04-05 00:42:00,35.0,29.0,29.98,NW,317,4.0,8.0,79,0.00,,,0.08,,2013-04-05 04:42:00,
2013-04-05 00:52:00,35.0,29.0,29.98,NW,309,5.0,8.0,78,0.00,,,0.08,,2013-04-05 04:52:00,
2013-04-05 01:02:00,35.0,28.0,29.99,NNW,327,4.0,13.0,75,0.00,,,0.08,,2013-04-05 05:02:00,
2013-04-05 01:13:00,35.0,28.0,29.99,NNW,327,4.0,13.0,75,0.00,,,0.08,,2013-04-05 05:13:00,
2013-04-05 01:22:00,34.0,27.0,29.99,NW,324,0.0,6.0,76,0.00,,,0.08,,2013-04-05 05:22:00,
2013-04-05 01:32:00,34.0,28.0,29.99,NW,318,2.0,6.0,78,0.00,,,0.08,,2013-04-05 05:32:00,
2013-04-05 01:42:00,34.0,28.0,29.99,NW,318,2.0,6.0,78,0.00,,,0.08,,2013-04-05 05:42:00,
2013-04-05 01:53:00,33.0,27.0,29.99,NW,323,0.0,0.0,79,0.00,,,0.08,,2013-04-05 05:53:00,
2013-04-05 02:02:00,33.0,27.0,29.99,NW,321,1.0,5.0,79,0.00,,,0.08,,2013-04-05 06:02:00,
2013-04-05 02:12:00,33.0,27.0,29.99,NW,321,1.0,5.0,79,0.00,,,0.08,,2013-04-05 06:12:00,
2013-04-05 02:22:00,33.0,27.0,29.99,WNW,302,1.0,7.0,78,0.00,,,0.08,,2013-04-05 06:22:00,
2013-04-05 02:32:00,33.0,26.0,29.99,NW,312,6.0,10.0,76,0.00,,,0.08,,2013-04-05 06:32:00,
2013-04-05 02:42:00,33.0,26.0,29.99,NW,312,6.0,10.0,76,0.00,,,0.08,,2013-04-05 06:42:00,
2013-04-05 02:52:00,33.0,26.0,30.00,NW,317,6.0,11.0,75,0.00,,,0.08,,2013-04-05 06:52:00,
2013-04-05 03:02:00,33.0,26.0,29.99,WNW,298,3.0,12.0,74,0.00,,,0.08,,2013-04-05 07:02:00,
2013-04-05 03:12:00,33.0,26.0,29.99,WNW,298,3.0,12.0,74,0.00,,,0.08,,2013-04-05 07:12:00,
2013-04-05 03:22:00,32.0,25.0,30.00,NW,311,4.0,9.0,75,0.00,,,0.08,,2013-04-05 07:22:00,
2013-04-05 03:32:00,32.0,25.0,30.00,NW,317,7.0,13.0,74,0.00,,,0.08,,2013-04-05 07:32:00,
2013-04-05 03:42:00,32.0,25.0,30.00,NW,317,7.0,13.0,74,0.00,,,0.08,,2013-04-05 07:42:00,
2013-04-05 03:53:00,32.0,24.0,30.01,NW,309,3.0,13.0,73,0.00,,,0.08,,2013-04-05 07:53:00,
2013-04-05 04:02:00,32.0,25.0,30.01,WNW,302,7.0,13.0,74,0.00,,,0.08,,2013-04-05 08:02:00,
2013-04-05 04:13:00,32.0,25.0,30.01,WNW,302,7.0,13.0,74,0.00,,,0.08,,2013-04-05 08:13:00,
2013-04-05 04:22:00,32.0,25.0,30.01,WNW,292,6.0,12.0,74,0.00,,,0.08,,2013-04-05 08:22:00,
2013-04-05 04:32:00,32.0,25.0,30.02,NW,309,5.0,15.0,74,0.00,,,0.08,,2013-04-05 08:32:00,
2013-04-05 04:43:00,32.0,25.0,30.02,NW,309,5.0,15.0,74,0.00,,,0.08,,2013-04-05 08:43:00,
2013-04-05 04:52:00,32.0,25.0,30.02,NW,313,9.0,13.0,74,0.00,,,0.08,,2013-04-05 08:52:00,
2013-04-05 05:02:00,31.0,24.0,30.02,NW,307,8.0,12.0,75,0.00,,,0.08,,2013-04-05 09:02:00,
2013-04-05 05:12:00,31.0,24.0,30.02,NW,307,8.0,12.0,75,0.00,,,0.08,,2013-04-05 09:12:00,
2013-04-05 05:22:00,31.0,24.0,30.02,NNW,331,9.0,13.0,75,0.00,,,0.08,,2013-04-05 09:22:00,
2013-04-05 05:33:00,31.0,24.0,30.03,NW,320,8.0,13.0,75,0.00,,,0.08,,2013-04-05 09:33:00,
2013-04-05 05:43:00,31.0,24.0,30.03,NW,320,8.0,13.0,75,0.00,,,0.08,,2013-04-05 09:43:00,
2013-04-05 05:53:00,31.0,24.0,30.04,NW,317,10.0,13.0,75,0.00,,,0.08,,2013-04-05 09:53:00,
2013-04-05 06:03:00,31.0,24.0,30.04,NW,326,2.0,12.0,74,0.00,,,0.08,,2013-04-05 10:03:00,
2013-04-05 06:13:00,31.0,24.0,30.04,NW,326,2.0,12.0,74,0.00,,,0.08,,2013-04-05 10:13:00,
2013-04-05 06:23:00,31.0,23.0,30.05,NW,317,2.0,12.0,73,0.00,,,0.08,,2013-04-05 10:23:00,
2013-04-05 06:33:00,30.0,23.0,30.06,NNW,345,9.0,14.0,74,0.00,,,0.08,,2013-04-05 10:33:00,
2013-04-05 06:43:00,30.0,23.0,30.06,NNW,345,9.0,14.0,74,0.00,,,0.08,,2013-04-05 10:43:00,
2013-04-05 06:53:00,30.0,22.0,30.07,NNW,333,6.0,11.0,73,0.00,,,0.08,,2013-04-05 10:53:00,
2013-04-05 07:03:00,30.0,22.0,30.07,NNW,330,3.0,12.0,73,0.00,,,0.08,,2013-04-05 11:03:00,
2013-04-05 07:13:00,30.0,22.0,30.07,NNW,330,3.0,12.0,73,0.00,,,0.08,,2013-04-05 11:13:00,
2013-04-05 07:22:00,29.0,22.0,30.08,NNW,333,7.0,12.0,74,0.00,,,0.08,,2013-04-05 11:22:00,
2013-04-05 07:33:00,29.0,21.0,30.09,NW,325,7.0,11.0,73,0.00,,,0.08,,2013-04-05 11:33:00,
2013-04-05 07:42:00,29.0,21.0,30.09,NW,325,7.0,11.0,73,0.00,,,0.08,,2013-04-05 11:42:00,
2013-04-05 07:52:00,29.0,21.0,30.10,NW,307,5.0,15.0,72,0.00,,,0.08,,2013-04-05 11:52:00,
2013-04-05 08:02:00,29.0,21.0,30.11,NNW,338,5.0,12.0,73,0.00,,,0.08,,2013-04-05 12:02:00,
2013-04-05 08:12:00,29.0,21.0,30.11,NNW,338,5.0,12.0,73,0.00,,,0.08,,2013-04-05 12:12:00,
2013-04-05 08:22:00,30.0,22.0,30.12,North,355,7.0,10.0,73,0.00,,,0.08,,2013-04-05 12:22:00,
2013-04-05 08:32:00,30.0,22.0,30.13,North,355,2.0,10.0,72,0.00,,,0.08,,2013-04-05 12:32:00,
2013-04-05 08:42:00,30.0,22.0,30.13,North,355,2.0,10.0,72,0.00,,,0.08,,2013-04-05 12:42:00,
2013-04-05 08:52:00,30.0,22.0,30.13,NNW,348,8.0,12.0,72,0.00,,,0.08,,2013-04-05 12:52:00,
2013-04-05 09:02:00,30.0,22.0,30.13,North,355,6.0,16.0,73,0.00,,,0.08,,2013-04-05 13:02:00,
2013-04-05 09:12:00,30.0,22.0,30.13,North,355,6.0,16.0,73,0.00,,,0.08,,2013-04-05 13:12:00,
2013-04-05 09:23:00,31.0,22.0,30.14,NNW,346,13.0,16.0,69,0.00,,,0.08,,2013-04-05 13:23:00,
2013-04-05 09:32:00,31.0,22.0,30.15,North,5,7.0,18.0,69,0.00,,,0.08,,2013-04-05 13:32:00,
2013-04-05 09:42:00,31.0,22.0,30.15,North,5,7.0,18.0,69,0.00,,,0.08,,2013-04-05 13:42:00,
2013-04-05 09:52:00,31.0,21.0,30.15,NNW,328,10.0,15.0,67,0.00,,,0.08,,2013-04-05 13:52:00,
2013-04-05 10:03:00,30.0,21.0,30.16,NNW,342,12.0,17.0,69,0.00,,,0.08,,2013-04-05 14:03:00,
2013-04-05 10:12:00,30.0,21.0,30.16,NNW,342,12.0,17.0,69,0.00,,,0.08,,2013-04-05 14:12:00,
2013-04-05 10:23:00,30.0,21.0,30.16,NNW,332,7.0,11.0,68,0.00,,,0.08,,2013-04-05 14:23:00,
2013-04-05 10:37:00,32.0,23.0,30.16,North,355,7.0,12.0,68,0.00,,,0.08,,2013-04-05 14:37:00,
2013-04-05 10:43:00,32.0,23.0,30.16,North,355,7.0,12.0,68,0.00,,,0.08,,2013-04-05 14:43:00,
2013-04-05 10:54:00,31.0,21.0,30.16,NNW,334,10.0,13.0,65,0.00,,,0.08,,2013-04-05 14:54:00,
2013-04-05 11:02:00,31.0,20.0,30.16,NNW,344,10.0,16.0,64,0.00,,,0.08,,2013-04-05 15:02:00,
2013-04-05 11:13:00,31.0,20.0,30.16,NNW,344,10.0,16.0,64,0.00,,,0.08,,2013-04-05 15:13:00,
2013-04-05 11:23:00,31.0,21.0,30.17,NNW,342,8.0,12.0,65,0.00,,,0.08,,2013-04-05 15:23:00,
2013-04-05 11:33:00,32.0,21.0,30.18,NNW,335,8.0,15.0,63,0.00,,,0.08,,2013-04-05 15:33:00,
2013-04-05 11:43:00,32.0,21.0,30.18,NNW,335,8.0,15.0,63,0.00,,,0.08,,2013-04-05 15:43:00,
2013-04-05 11:54:00,32.0,20.0,30.18,WNW,295,9.0,14.0,62,0.00,,,0.08,,2013-04-05 15:54:00,
2013-04-05 12:03:00,32.0,20.0,30.18,NW,315,5.0,17.0,61,0.00,,,0.08,,2013-04-05 16:03:00,
2013-04-05 12:13:00,32.0,20.0,30.18,NW,315,5.0,17.0,61,0.00,,,0.08,,2013-04-05 16:13:00,
2013-04-05 12:23:00,33.0,21.0,30.19,NW,309,5.0,14.0,62,0.00,,,0.08,,2013-04-05 16:23:00,
2013-04-05 12:33:00,32.0,22.0,30.19,West,274,11.0,17.0,65,0.00,,,0.08,,2013-04-05 16:33:00,
2013-04-05 12:42:00,32.0,22.0,30.19,West,274,11.0,17.0,65,0.00,,,0.08,,2013-04-05 16:42:00,
2013-04-05 12:53:00,32.0,21.0,30.19,NW,304,11.0,19.0,64,0.00,,,0.08,,2013-04-05 16:53:00,
2013-04-05 13:03:00,33.0,23.0,30.19,WNW,283,13.0,18.0,66,0.00,,,0.08,,2013-04-05 17:03:00,
2013-04-05 13:13:00,33.0,23.0,30.19,WNW,283,13.0,18.0,66,0.00,,,0.08,,2013-04-05 17:13:00,
2013-04-05 13:23:00,32.0,21.0,30.19,West,275,14.0,19.0,64,0.00,,,0.08,,2013-04-05 17:23:00,
2013-04-05 13:32:00,33.0,22.0,30.18,West,275,10.0,20.0,63,0.00,,,0.08,,2013-04-05 17:32:00,
2013-04-05 13:45:00,33.0,22.0,30.18,West,275,10.0,20.0,63,0.00,,,0.08,,2013-04-05 17:45:00,
2013-04-05 13:53:00,32.0,21.0,30.18,WNW,297,11.0,18.0,64,0.00,,,0.08,,2013-04-05 17:53:00,
2013-04-05 14:02:00,33.0,21.0,30.18,WNW,289,13.0,18.0,61,0.00,,,0.08,,2013-04-05 18:02:00,
2013-04-05 14:13:00,33.0,21.0,30.18,WNW,289,13.0,18.0,61,0.00,,,0.08,,2013-04-05 18:13:00,
2013-04-05 14:23:00,33.0,21.0,30.18,WNW,287,15.0,19.0,61,0.00,,,0.08,,2013-04-05 18:23:00,
2013-04-05 14:33:00,33.0,21.0,30.18,West,271,14.0,20.0,61,0.00,,,0.08,,2013-04-05 18:33:00,
2013-04-05 14:43:00,33.0,21.0,30.18,West,271,14.0,20.0,61,0.00,,,0.08,,2013-04-05 18:43:00,
2013-04-05 14:53:00,34.0,22.0,30.18,West,272,13.0,20.0,60,0.00,,,0.08,,2013-04-05 18:53:00,
2013-04-05 15:02:00,33.0,21.0,30.18,WNW,284,14.0,18.0,61,0.00,,,0.08,,2013-04-05 19:02:00,
2013-04-05 15:13:00,33.0,21.0,30.18,WNW,284,14.0,18.0,61,0.00,,,0.08,,2013-04-05 19:13:00,
2013-04-05 15:23:00,33.0,20.0,30.18,WNW,296,7.0,20.0,58,0.00,,,0.08,,2013-04-05 19:23:00,
2013-04-05 15:33:00,33.0,20.0,30.18,WNW,296,7.0,20.0,58,0.00,,,0.08,,2013-04-05 19:33:00,
2013-04-05 15:42:00,33.0,20.0,30.18,WNW,296,7.0,20.0,58,0.00,,,0.08,,2013-04-05 19:42:00,
2013-04-05 15:53:00,33.0,20.0,30.18,WNW,296,7.0,20.0,58,0.00,,,0.08,,2013-04-05 19:53:00,
2013-04-05 16:02:00,33.0,20.0,30.18,WNW,296,7.0,20.0,58,0.00,,,0.08,,2013-04-05 20:02:00,
2013-04-05 16:22:00,34.0,22.0,30.16,West,269,9.0,18.0,62,0.00,,,0.06,,2013-04-05 20:22:00,
2013-04-05 16:33:00,34.0,22.0,30.16,West,269,9.0,18.0,62,0.00,,,0.06,,2013-04-05 20:33:00,
2013-04-05 16:43:00,34.0,22.0,30.16,West,269,9.0,18.0,62,0.00,,,0.06,,2013-04-05 20:43:00,
2013-04-05 16:52:00,34.0,22.0,30.16,WSW,256,8.0,14.0,62,0.00,,,0.01,,2013-04-05 20:52:00,
2013-04-05 17:03:00,34.0,22.0,30.16,WNW,294,7.0,16.0,61,0.00,,,0.01,,2013-04-05 21:03:00,
2013-04-05 17:13:00,34.0,22.0,30.16,WNW,294,7.0,16.0,61,0.00,,,0.01,,2013-04-05 21:13:00,
2013-04-05 17:23:00,34.0,22.0,30.16,West,271,9.0,13.0,61,0.00,,,0.01,,2013-04-05 21:23:00,
2013-04-05 17:33:00,34.0,22.0,30.16,West,277,9.0,14.0,60,0.00,,,0.01,,2013-04-05 21:33:00,
2013-04-05 17:43:00,34.0,22.0,30.16,West,277,9.0,14.0,60,0.00,,,0.01,,2013-04-05 21:43:00,
2013-04-05 17:55:00,33.0,21.0,30.16,WNW,300,7.0,14.0,61,0.00,,,0.00,,2013-04-05 21:55:00,
2013-04-05 18:03:00,34.0,21.0,30.16,WSW,253,5.0,13.0,58,0.00,,,0.00,,2013-04-05 22:03:00,
2013-04-05 18:13:00,34.0,21.0,30.16,WSW,253,5.0,13.0,58,0.00,,,0.00,,2013-04-05 22:13:00,
2013-04-05 18:23:00,34.0,21.0,30.16,West,278,3.0,14.0,59,0.00,,,0.00,,2013-04-05 22:23:00,
2013-04-05 18:33:00,33.0,21.0,30.16,West,273,7.0,18.0,60,0.00,,,0.00,,2013-04-05 22:33:00,
2013-04-05 18:43:00,33.0,21.0,30.16,West,273,7.0,18.0,60,0.00,,,0.00,,2013-04-05 22:43:00,
2013-04-05 18:53:00,33.0,20.0,30.17,WSW,257,9.0,11.0,58,0.00,,,0.00,,2013-04-05 22:53:00,
2013-04-05 19:03:00,33.0,20.0,30.18,West,263,5.0,10.0,59,0.00,,,0.00,,2013-04-05 23:03:00,
2013-04-05 19:12:00,33.0,20.0,30.18,West,263,5.0,10.0,59,0.00,,,0.00,,2013-04-05 23:12:00,
2013-04-05 19:22:00,33.0,21.0,30.18,West,281,1.0,7.0,61,0.00,,,0.00,,2013-04-05 23:22:00,
2013-04-05 19:32:00,32.0,20.0,30.18,WNW,292,2.0,7.0,61,0.00,,,0.00,,2013-04-05 23:32:00,
2013-04-05 19:42:00,32.0,20.0,30.18,WNW,292,2.0,7.0,61,0.00,,,0.00,,2013-04-05 23:42:00,
2013-04-05 19:53:00,32.0,21.0,30.18,West,275,0.0,10.0,63,0.00,,,0.00,,2013-04-05 23:53:00,
2013-04-05 20:02:00,32.0,20.0,30.17,West,275,0.0,9.0,62,0.00,,,0.00,,2013-04-06 00:02:00,
2013-04-05 20:13:00,32.0,20.0,30.17,West,275,0.0,9.0,62,0.00,,,0.00,,2013-04-06 00:13:00,
2013-04-05 20:23:00,32.0,22.0,30.17,West,274,0.0,6.0,66,0.00,,,0.00,,2013-04-06 00:23:00,
2013-04-05 20:33:00,31.0,21.0,30.17,West,269,0.0,7.0,67,0.00,,,0.00,,2013-04-06 00:33:00,
2013-04-05 20:42:00,31.0,21.0,30.17,West,269,0.0,7.0,67,0.00,,,0.00,,2013-04-06 00:42:00,
2013-04-05 20:52:00,31.0,21.0,30.17,West,267,4.0,7.0,67,0.00,,,0.00,,2013-04-06 00:52:00,
2013-04-05 21:02:00,31.0,22.0,30.17,West,261,0.0,7.0,68,0.00,,,0.00,,2013-04-06 01:02:00,
2013-04-05 21:13:00,31.0,22.0,30.18,West,262,0.0,5.0,69,0.00,,,0.00,,2013-04-06 01:13:00,
2013-04-05 21:22:00,31.0,22.0,30.18,West,262,0.0,5.0,69,0.00,,,0.00,,2013-04-06 01:22:00,
2013-04-05 21:33:00,31.0,22.0,30.18,WSW,254,0.0,1.0,69,0.00,,,0.00,,2013-04-06 01:33:00,
2013-04-05 21:43:00,31.0,22.0,30.18,WSW,254,0.0,1.0,69,0.00,,,0.00,,2013-04-06 01:43:00,
2013-04-05 21:53:00,30.0,21.0,30.18,WSW,252,0.0,7.0,70,0.00,,,0.00,,2013-04-06 01:53:00,
2013-04-05 22:02:00,30.0,22.0,30.19,WSW,250,0.0,0.0,71,0.00,,,0.00,,2013-04-06 02:02:00,
2013-04-05 22:12:00,30.0,22.0,30.19,WSW,250,0.0,0.0,71,0.00,,,0.00,,2013-04-06 02:12:00,
2013-04-05 22:23:00,30.0,22.0,30.19,WSW,244,0.0,4.0,72,0.00,,,0.00,,2013-04-06 02:23:00,
2013-04-05 22:32:00,30.0,22.0,30.19,WSW,244,0.0,0.0,72,0.00,,,0.00,,2013-04-06 02:32:00,
2013-04-05 22:42:00,30.0,22.0,30.19,WSW,244,0.0,0.0,72,0.00,,,0.00,,2013-04-06 02:42:00,
2013-04-05 22:53:00,29.0,21.0,30.19,SW,231,0.0,0.0,73,0.00,,,0.00,,2013-04-06 02:53:00,
2013-04-05 23:02:00,29.0,22.0,30.19,SW,231,0.0,0.0,74,0.00,,,0.00,,2013-04-06 03:02:00,
2013-04-05 23:13:00,29.0,22.0,30.19,SW,231,0.0,0.0,74,0.00,,,0.00,,2013-04-06 03:13:00,
2013-04-05 23:22:00,29.0,23.0,30.18,SW,231,0.0,0.0,77,0.00,,,0.00,,2013-04-06 03:22:00,
2013-04-05 23:34:00,29.0,23.0,30.19,SW,231,0.0,0.0,77,0.00,,,0.00,,2013-04-06 03:34:00,
2013-04-05 23:43:00,29.0,23.0,30.19,SW,231,0.0,0.0,77,0.00,,,0.00,,2013-04-06 03:43:00,
2013-04-05 23:54:00,28.0,22.0,30.18,SW,231,0.0,0.0,78,0.00,,,0.00,,2013-04-06 03:54:00,